Time,TemperatureF,DewpointF,PressureIn,WindDirection,WindDirectionDegrees,WindSpeedMPH,WindSpeedGustMPH,Humidity,HourlyPrecipIn,Conditions,Clouds,dailyrainin,SolarRadiationWatts/m^2,SoftwareType,DateUTC
2013-12-08 00:02:00,-9.0,-14.0,-100.00,South,177,3.0,7.0,77,0.00,,,0.00,0.000000,,2013-12-08 06:02:00,
2013-12-08 00:11:00,-9.0,-14.0,-100.00,SE,139,2.0,4.0,77,0.00,,,0.00,0.000000,,2013-12-08 06:11:00,
2013-12-08 00:42:00,-9.0,-14.0,-100.00,SE,139,2.0,4.0,77,0.00,,,0.00,0.000000,,2013-12-08 06:42:00,
2013-12-08 00:52:00,-9.0,-14.0,-100.00,SE,139,2.0,4.0,77,0.00,,,0.00,0.000000,,2013-12-08 06:52:00,
2013-12-08 01:02:00,-9.0,-14.0,-100.00,SE,139,2.0,4.0,77,0.00,,,0.00,0.000000,,2013-12-08 07:02:00,
2013-12-08 01:11:00,-7.0,-12.0,-100.00,East,92,1.0,4.0,79,0.00,,,0.00,0.000000,,2013-12-08 07:11:00,
2013-12-08 01:42:00,-7.0,-12.0,-100.00,East,92,1.0,4.0,79,0.00,,,0.00,0.000000,,2013-12-08 07:42:00,
2013-12-08 01:53:00,-7.0,-12.0,-100.00,East,92,1.0,4.0,79,0.00,,,0.00,0.000000,,2013-12-08 07:53:00,
2013-12-08 02:02:00,-7.0,-12.0,-100.00,East,92,1.0,4.0,79,0.00,,,0.00,0.000000,,2013-12-08 08:02:00,
2013-12-08 02:11:00,-5.0,-10.0,-100.00,ESE,107,3.0,5.0,80,0.00,,,0.00,0.000000,,2013-12-08 08:11:00,
2013-12-08 02:43:00,-5.0,-10.0,-100.00,ESE,107,3.0,5.0,80,0.00,,,0.00,0.000000,,2013-12-08 08:43:00,
2013-12-08 02:52:00,-5.0,-10.0,-100.00,ESE,107,3.0,5.0,80,0.00,,,0.00,0.000000,,2013-12-08 08:52:00,
2013-12-08 03:02:00,-5.0,-10.0,-100.00,ESE,107,3.0,5.0,80,0.00,,,0.00,0.000000,,2013-12-08 09:02:00,
2013-12-08 03:11:00,-3.0,-8.0,-100.00,ESE,121,5.0,7.0,79,0.00,,,0.00,0.000000,,2013-12-08 09:11:00,
2013-12-08 03:43:00,-3.0,-8.0,-100.00,ESE,121,5.0,7.0,79,0.00,,,0.00,0.000000,,2013-12-08 09:43:00,
2013-12-08 03:53:00,-3.0,-8.0,-100.00,ESE,121,5.0,7.0,79,0.00,,,0.00,0.000000,,2013-12-08 09:53:00,
2013-12-08 04:03:00,-3.0,-8.0,-100.00,ESE,121,5.0,7.0,79,0.00,,,0.00,0.000000,,2013-12-08 10:03:00,
2013-12-08 04:11:00,-2.0,-6.0,-100.00,East,97,6.0,9.0,81,0.00,,,0.00,0.000000,,2013-12-08 10:11:00,
2013-12-08 04:43:00,-2.0,-6.0,-100.00,East,97,6.0,9.0,81,0.00,,,0.00,0.000000,,2013-12-08 10:43:00,
2013-12-08 04:53:00,-2.0,-6.0,-100.00,East,97,6.0,9.0,81,0.00,,,0.00,0.000000,,2013-12-08 10:53:00,
2013-12-08 05:02:00,-2.0,-6.0,-100.00,East,97,6.0,9.0,81,0.00,,,0.00,0.000000,,2013-12-08 11:02:00,
2013-12-08 05:11:00,-2.0,-6.0,-100.00,East,83,6.0,9.0,82,0.00,,,0.00,0.000000,,2013-12-08 11:11:00,
2013-12-08 05:43:00,-2.0,-6.0,-100.00,East,83,6.0,9.0,82,0.00,,,0.00,0.000000,,2013-12-08 11:43:00,
2013-12-08 05:52:00,-2.0,-6.0,-100.00,East,83,6.0,9.0,82,0.00,,,0.00,0.000000,,2013-12-08 11:52:00,
2013-12-08 06:02:00,-2.0,-6.0,-100.00,East,83,6.0,9.0,82,0.00,,,0.00,0.000000,,2013-12-08 12:02:00,
2013-12-08 06:11:00,-1.0,-5.0,-100.00,East,96,7.0,9.0,83,0.00,,,0.00,0.000000,,2013-12-08 12:11:00,
2013-12-08 06:42:00,-1.0,-5.0,-100.00,East,96,7.0,9.0,83,0.00,,,0.00,0.000000,,2013-12-08 12:42:00,
2013-12-08 06:52:00,-1.0,-5.0,-100.00,East,96,7.0,9.0,83,0.00,,,0.00,0.000000,,2013-12-08 12:52:00,
2013-12-08 07:01:00,-1.0,-5.0,-100.00,East,96,7.0,9.0,83,0.00,,,0.00,0.000000,,2013-12-08 13:01:00,
2013-12-08 07:11:00,0.0,-4.0,-100.00,East,95,7.0,12.0,84,0.00,,,0.00,0.000000,,2013-12-08 13:11:00,
2013-12-08 07:42:00,0.0,-4.0,-100.00,East,95,7.0,12.0,84,0.00,,,0.00,0.000000,,2013-12-08 13:42:00,
2013-12-08 07:52:00,0.0,-4.0,-100.00,East,95,7.0,12.0,84,0.00,,,0.00,0.000000,,2013-12-08 13:52:00,
2013-12-08 08:02:00,0.0,-4.0,-100.00,East,95,7.0,12.0,84,0.00,,,0.00,0.000000,,2013-12-08 14:02:00,
2013-12-08 08:11:00,1.0,-3.0,-100.00,East,88,8.0,11.0,84,0.00,,,0.00,4.000000,,2013-12-08 14:11:00,
2013-12-08 08:42:00,1.0,-3.0,-100.00,East,88,8.0,11.0,84,0.00,,,0.00,4.000000,,2013-12-08 14:42:00,
2013-12-08 08:52:00,1.0,-3.0,-100.00,East,88,8.0,11.0,84,0.00,,,0.00,4.000000,,2013-12-08 14:52:00,
2013-12-08 09:02:00,1.0,-3.0,-100.00,East,88,8.0,11.0,84,0.00,,,0.00,4.000000,,2013-12-08 15:02:00,
2013-12-08 09:11:00,2.0,-2.0,-100.00,East,90,8.0,11.0,84,0.00,,,0.00,55.000000,,2013-12-08 15:11:00,
2013-12-08 09:43:00,2.0,-2.0,-100.00,East,90,8.0,11.0,84,0.00,,,0.00,55.000000,,2013-12-08 15:43:00,
2013-12-08 09:54:00,2.0,-2.0,-100.00,East,90,8.0,11.0,84,0.00,,,0.00,55.000000,,2013-12-08 15:54:00,
2013-12-08 10:04:00,2.0,-2.0,-100.00,East,90,8.0,11.0,84,0.00,,,0.00,55.000000,,2013-12-08 16:04:00,
2013-12-08 10:11:00,5.0,0.0,-100.00,East,91,9.0,13.0,81,0.00,,,0.00,181.000000,,2013-12-08 16:11:00,
2013-12-08 10:43:00,5.0,0.0,-100.00,East,91,9.0,13.0,81,0.00,,,0.00,181.000000,,2013-12-08 16:43:00,
2013-12-08 10:53:00,5.0,0.0,-100.00,East,91,9.0,13.0,81,0.00,,,0.00,181.000000,,2013-12-08 16:53:00,
2013-12-08 11:02:00,5.0,0.0,-100.00,East,91,9.0,13.0,81,0.00,,,0.00,181.000000,,2013-12-08 17:02:00,
2013-12-08 11:11:00,7.0,2.0,-100.00,East,96,9.0,14.0,80,0.00,,,-99.99,279.000000,,2013-12-08 17:11:00,
2013-12-08 11:43:00,7.0,2.0,-100.00,East,96,9.0,14.0,80,0.00,,,-99.99,279.000000,,2013-12-08 17:43:00,
2013-12-08 11:52:00,7.0,2.0,-100.00,East,96,9.0,14.0,80,0.00,,,-99.99,279.000000,,2013-12-08 17:52:00,
2013-12-08 12:02:00,7.0,2.0,-100.00,East,96,9.0,14.0,80,0.00,,,-99.99,279.000000,,2013-12-08 18:02:00,
2013-12-08 12:11:00,10.0,5.0,-100.00,East,97,8.0,13.0,79,0.00,,,0.00,353.000000,,2013-12-08 18:11:00,
2013-12-08 12:42:00,10.0,5.0,-100.00,East,97,8.0,13.0,79,0.00,,,0.00,353.000000,,2013-12-08 18:42:00,
2013-12-08 12:52:00,10.0,5.0,-100.00,East,97,8.0,13.0,79,0.00,,,0.00,353.000000,,2013-12-08 18:52:00,
2013-12-08 13:02:00,10.0,5.0,-100.00,East,97,8.0,13.0,79,0.00,,,0.00,353.000000,,2013-12-08 19:02:00,
2013-12-08 13:11:00,11.0,5.0,-100.00,ESE,109,9.0,15.0,77,0.00,,,0.00,378.000000,,2013-12-08 19:11:00,
2013-12-08 13:42:00,11.0,5.0,-100.00,ESE,109,9.0,15.0,77,0.00,,,0.00,378.000000,,2013-12-08 19:42:00,
2013-12-08 13:52:00,11.0,5.0,-100.00,ESE,109,9.0,15.0,77,0.00,,,0.00,378.000000,,2013-12-08 19:52:00,
2013-12-08 14:02:00,11.0,5.0,-100.00,ESE,109,9.0,15.0,77,0.00,,,0.00,378.000000,,2013-12-08 20:02:00,
2013-12-08 14:11:00,9.0,4.0,-100.00,ESE,105,8.0,12.0,80,0.00,,,0.00,222.000000,,2013-12-08 20:11:00,
2013-12-08 14:42:00,9.0,4.0,-100.00,ESE,105,8.0,12.0,80,0.00,,,0.00,222.000000,,2013-12-08 20:42:00,
2013-12-08 14:53:00,9.0,4.0,-100.00,ESE,105,8.0,12.0,80,0.00,,,0.00,222.000000,,2013-12-08 20:53:00,
2013-12-08 15:02:00,9.0,4.0,-100.00,ESE,105,8.0,12.0,80,0.00,,,0.00,222.000000,,2013-12-08 21:02:00,
2013-12-08 15:11:00,10.0,6.0,-100.00,East,98,9.0,12.0,83,0.00,,,0.00,163.000000,,2013-12-08 21:11:00,
2013-12-08 15:43:00,10.0,6.0,-100.00,East,98,9.0,12.0,83,0.00,,,0.00,163.000000,,2013-12-08 21:43:00,
2013-12-08 15:53:00,10.0,6.0,-100.00,East,98,9.0,12.0,83,0.00,,,0.00,163.000000,,2013-12-08 21:53:00,
2013-12-08 16:03:00,10.0,6.0,-100.00,East,98,9.0,12.0,83,0.00,,,0.00,163.000000,,2013-12-08 22:03:00,
2013-12-08 16:11:00,8.0,5.0,-100.00,East,96,6.0,11.0,86,0.00,,,0.00,92.000000,,2013-12-08 22:11:00,
2013-12-08 16:43:00,8.0,5.0,-100.00,East,96,6.0,11.0,86,0.00,,,0.00,92.000000,,2013-12-08 22:43:00,
2013-12-08 16:53:00,8.0,5.0,-100.00,East,96,6.0,11.0,86,0.00,,,0.00,92.000000,,2013-12-08 22:53:00,
2013-12-08 17:03:00,8.0,5.0,-100.00,East,96,6.0,11.0,86,0.00,,,0.00,92.000000,,2013-12-08 23:03:00,
2013-12-08 17:11:00,6.0,4.0,-100.00,East,81,3.0,8.0,90,0.00,,,0.00,7.000000,,2013-12-08 23:11:00,
2013-12-08 17:42:00,6.0,4.0,-100.00,East,81,3.0,8.0,90,0.00,,,0.00,7.000000,,2013-12-08 23:42:00,
2013-12-08 17:53:00,6.0,4.0,-100.00,East,81,3.0,8.0,90,0.00,,,0.00,7.000000,,2013-12-08 23:53:00,
2013-12-08 18:02:00,6.0,4.0,-100.00,East,81,3.0,8.0,90,0.00,,,0.00,7.000000,,2013-12-09 00:02:00,
2013-12-08 18:11:00,6.0,4.0,-100.00,East,90,3.0,4.0,92,0.00,,,0.00,0.000000,,2013-12-09 00:11:00,
2013-12-08 18:42:00,6.0,4.0,-100.00,East,90,3.0,4.0,92,0.00,,,0.00,0.000000,,2013-12-09 00:42:00,
2013-12-08 18:52:00,6.0,4.0,-100.00,East,90,3.0,4.0,92,0.00,,,0.00,0.000000,,2013-12-09 00:52:00,
2013-12-08 19:02:00,6.0,4.0,-100.00,East,90,3.0,4.0,92,0.00,,,0.00,0.000000,,2013-12-09 01:02:00,
2013-12-08 19:11:00,6.0,4.0,-100.00,NNE,19,0.0,3.0,92,0.00,,,0.00,0.000000,,2013-12-09 01:11:00,
2013-12-08 19:42:00,6.0,4.0,-100.00,NNE,19,0.0,3.0,92,0.00,,,0.00,0.000000,,2013-12-09 01:42:00,
2013-12-08 19:52:00,6.0,4.0,-100.00,NNE,19,0.0,3.0,92,0.00,,,0.00,0.000000,,2013-12-09 01:52:00,
2013-12-08 20:02:00,6.0,4.0,-100.00,NNE,19,0.0,3.0,92,0.00,,,0.00,0.000000,,2013-12-09 02:02:00,
2013-12-08 20:11:00,5.0,3.0,-100.00,NNE,18,0.0,0.0,92,0.00,,,0.00,0.000000,,2013-12-09 02:11:00,
2013-12-08 20:42:00,5.0,3.0,-100.00,NNE,18,0.0,0.0,92,0.00,,,0.00,0.000000,,2013-12-09 02:42:00,
2013-12-08 20:53:00,5.0,3.0,-100.00,NNE,18,0.0,0.0,92,0.00,,,0.00,0.000000,,2013-12-09 02:53:00,
2013-12-08 21:02:00,5.0,3.0,-100.00,NNE,18,0.0,0.0,92,0.00,,,0.00,0.000000,,2013-12-09 03:02:00,
2013-12-08 21:11:00,1.0,-2.0,-100.00,SE,144,1.0,2.0,88,0.00,,,0.00,0.000000,,2013-12-09 03:11:00,
2013-12-08 21:43:00,1.0,-2.0,-100.00,SE,144,1.0,2.0,88,0.00,,,0.00,0.000000,,2013-12-09 03:43:00,
2013-12-08 21:54:00,1.0,-2.0,-100.00,SE,144,1.0,2.0,88,0.00,,,0.00,0.000000,,2013-12-09 03:54:00,
2013-12-08 22:03:00,1.0,-2.0,-100.00,SE,144,1.0,2.0,88,0.00,,,0.00,0.000000,,2013-12-09 04:03:00,
2013-12-08 22:11:00,3.0,1.0,-100.00,SW,217,1.0,3.0,90,0.00,,,0.00,0.000000,,2013-12-09 04:11:00,
2013-12-08 22:43:00,3.0,1.0,-100.00,SW,217,1.0,3.0,90,0.00,,,0.00,0.000000,,2013-12-09 04:43:00,
2013-12-08 22:53:00,3.0,1.0,-100.00,SW,217,1.0,3.0,90,0.00,,,0.00,0.000000,,2013-12-09 04:53:00,
2013-12-08 23:02:00,3.0,1.0,-100.00,SW,217,1.0,3.0,90,0.00,,,0.00,0.000000,,2013-12-09 05:02:00,
2013-12-08 23:11:00,4.0,2.0,-100.00,SW,215,2.0,4.0,90,0.00,,,0.00,0.000000,,2013-12-09 05:11:00,
2013-12-08 23:43:00,4.0,2.0,-100.00,SW,215,2.0,4.0,90,0.00,,,0.00,0.000000,,2013-12-09 05:43:00,
2013-12-08 23:53:00,4.0,2.0,-100.00,SW,215,2.0,4.0,90,0.00,,,0.00,0.000000,,2013-12-09 05:53:00,